Location: ???????
(55.3754°N, 39.3545°E)
Time: 08:05:49
(UTC+00:00)

ERS-1 Rocket - Pass Details

Date: 14 April 2026
Orbit: 747 x 750 km, 98.2° (Epoch: 14 May)

Event Time Altitude Azimuth Distance (km) Brightness Sun altitude
Exits shadow 17:51:30 - 178° (S) 3,091 5.8 -11.6°
Reaches altitude 10° 17:53:36 10° 183° (S) 2,267 5.1 -11.8°
Maximum altitude 17:58:28 52° 260° (W) 932 3.7 -12.4°
Drops below altitude 10° 18:03:23 10° 337° (NNW) 2,285 6.5 -12.9°
Sets 18:05:45 0° 342° (NNW) 3,215 7.3 -13.2°
